Hourly Weather Kozlovo

Today, 21 October, Wednesday

Time Temperature Precipitation Wind Pressure Humidity
00:00 0°C° 0 mm 4 mps 750 mmHg 85%
01:00 -1°C° 0 mm 4 mps 751 mmHg 86%
02:00 -1°C° 0 mm 4 mps 751 mmHg 87%
03:00 -1°C° 0 mm 4 mps 752 mmHg 87%
04:00 -2°C° 0 mm 4 mps 752 mmHg 88%
05:00 -2°C° 0 mm 4 mps 752 mmHg 89%
06:00 -2°C° 0 mm 4 mps 752 mmHg 90%
07:00 -2°C° 0 mm 4 mps 752 mmHg 88%
08:00 -1°C° 0 mm 4 mps 753 mmHg 85%
09:00 -1°C° 0 mm 4 mps 753 mmHg 82%
10:00 0°C° 0 mm 4 mps 753 mmHg 77%
11:00 +1°C° 0 mm 4 mps 753 mmHg 73%
12:00 +3°C° 0 mm 4 mps 752 mmHg 69%
13:00 +3°C° 0 mm 4 mps 752 mmHg 70%
14:00 +2°C° 0 mm 5 mps 752 mmHg 71%
15:00 +2°C° 0 mm 5 mps 752 mmHg 72%
16:00 +1°C° 0.2 mm 4 mps 752 mmHg 79%
17:00 +2°C° 0.2 mm 3 mps 751 mmHg 87%
18:00 +1°C° 0.2 mm 3 mps 751 mmHg 95%
19:00 +2°C° 0.3 mm 3 mps 751 mmHg 95%
20:00 +3°C° 0.3 mm 2 mps 751 mmHg 95%
21:00 +3°C° 0.3 mm 2 mps 751 mmHg 96%
22:00 +3°C° 0.1 mm 2 mps 750 mmHg 95%
23:00 +4°C° 0.1 mm 2 mps 750 mmHg 95%

Tomorrow, 22 October, Thursday

Time Temperature Precipitation Wind Pressure Humidity
00:00 +4°C° 0.1 mm 2 mps 750 mmHg 95%
01:00 +4°C° 0 mm 2 mps 750 mmHg 94%
02:00 +4°C° 0 mm 2 mps 750 mmHg 94%
03:00 +4°C° 0 mm 2 mps 750 mmHg 93%
04:00 +4°C° 0 mm 2 mps 750 mmHg 94%
05:00 +4°C° 0 mm 2 mps 749 mmHg 94%
06:00 +4°C° 0 mm 2 mps 749 mmHg 94%
07:00 +5°C° 0 mm 2 mps 749 mmHg 94%
08:00 +5°C° 0 mm 2 mps 749 mmHg 93%
09:00 +5°C° 0 mm 2 mps 749 mmHg 93%
10:00 +6°C° 0 mm 2 mps 749 mmHg 88%
11:00 +7°C° 0 mm 3 mps 749 mmHg 84%
12:00 +8°C° 0 mm 3 mps 749 mmHg 80%
13:00 +8°C° 0.1 mm 3 mps 749 mmHg 79%
14:00 +8°C° 0.1 mm 3 mps 748 mmHg 78%
15:00 +9°C° 0.1 mm 3 mps 748 mmHg 77%
16:00 +8°C° 0.1 mm 3 mps 748 mmHg 80%
17:00 +7°C° 0.1 mm 4 mps 747 mmHg 83%
18:00 +7°C° 0.1 mm 4 mps 746 mmHg 86%
19:00 +7°C° 0.3 mm 4 mps 746 mmHg 87%
20:00 +7°C° 0.3 mm 4 mps 745 mmHg 89%
21:00 +7°C° 0.3 mm 5 mps 745 mmHg 90%
22:00 +7°C° 0.2 mm 5 mps 745 mmHg 89%
23:00 +7°C° 0.2 mm 5 mps 744 mmHg 88%

Day after tomorrow, 23 October, Friday

Time Temperature Precipitation Wind Pressure Humidity
00:00 +8°C° 0.2 mm 5 mps 744 mmHg 87%
01:00 +8°C° 0 mm 5 mps 744 mmHg 88%
02:00 +8°C° 0 mm 6 mps 743 mmHg 89%
03:00 +8°C° 0 mm 6 mps 743 mmHg 90%
04:00 +8°C° 0 mm 6 mps 743 mmHg 90%
05:00 +9°C° 0 mm 6 mps 743 mmHg 90%
06:00 +9°C° 0 mm 6 mps 744 mmHg 90%
07:00 +9°C° 0 mm 6 mps 744 mmHg 89%
08:00 +9°C° 0 mm 6 mps 744 mmHg 88%
09:00 +9°C° 0 mm 6 mps 744 mmHg 87%
10:00 +10°C° 0 mm 5 mps 744 mmHg 85%
11:00 +10°C° 0 mm 5 mps 744 mmHg 83%
12:00 +12°C° 0 mm 5 mps 744 mmHg 81%
13:00 +12°C° 0 mm 5 mps 744 mmHg 79%
14:00 +13°C° 0 mm 5 mps 744 mmHg 78%
15:00 +13°C° 0 mm 5 mps 744 mmHg 76%
16:00 +13°C° 0 mm 5 mps 743 mmHg 79%
17:00 +12°C° 0 mm 5 mps 743 mmHg 81%
18:00 +12°C° 0 mm 5 mps 742 mmHg 84%
19:00 +11°C° 0.2 mm 6 mps 742 mmHg 85%
20:00 +11°C° 0.2 mm 6 mps 741 mmHg 86%
21:00 +11°C° 0.2 mm 6 mps 740 mmHg 87%
22:00 +11°C° 0.8 mm 7 mps 740 mmHg 88%
23:00 +11°C° 0.8 mm 7 mps 740 mmHg 89%

24 October, Saturday

Time Temperature Precipitation Wind Pressure Humidity
00:00 +11°C° 0.8 mm 8 mps 740 mmHg 90%
01:00 +11°C° 0.1 mm 7 mps 740 mmHg 90%
02:00 +11°C° 0.1 mm 7 mps 740 mmHg 89%
03:00 +10°C° 0.1 mm 6 mps 740 mmHg 88%
04:00 +10°C° 0 mm 6 mps 741 mmHg 89%
05:00 +9°C° 0 mm 6 mps 741 mmHg 89%
06:00 +9°C° 0 mm 6 mps 741 mmHg 90%
07:00 +9°C° 0 mm 6 mps 742 mmHg 88%
08:00 +9°C° 0 mm 5 mps 742 mmHg 87%
09:00 +9°C° 0 mm 5 mps 742 mmHg 85%
10:00 +9°C° 0 mm 5 mps 743 mmHg 82%
11:00 +11°C° 0 mm 4 mps 743 mmHg 79%
12:00 +11°C° 0 mm 4 mps 744 mmHg 75%
13:00 +11°C° 0 mm 4 mps 744 mmHg 76%
14:00 +11°C° 0 mm 3 mps 744 mmHg 76%
15:00 +11°C° 0 mm 3 mps 744 mmHg 76%
16:00 +10°C° 0 mm 3 mps 744 mmHg 79%
17:00 +10°C° 0 mm 2 mps 744 mmHg 82%
18:00 +9°C° 0 mm 2 mps 744 mmHg 85%
19:00 +9°C° 0 mm 2 mps 744 mmHg 84%
20:00 +9°C° 0 mm 2 mps 744 mmHg 84%
21:00 +10°C° 0 mm 1 mps 744 mmHg 84%
22:00 +9°C° 0 mm 2 mps 743 mmHg 85%
23:00 +8°C° 0 mm 2 mps 743 mmHg 86%

25 October, Sunday

Time Temperature Precipitation Wind Pressure Humidity
00:00 +8°C° 0 mm 2 mps 743 mmHg 87%
01:00 +8°C° 0 mm 2 mps 742 mmHg 88%
02:00 +8°C° 0 mm 3 mps 742 mmHg 89%
03:00 +8°C° 0 mm 3 mps 741 mmHg 90%
04:00 +7°C° 0.4 mm 4 mps 740 mmHg 91%
05:00 +7°C° 0.4 mm 4 mps 739 mmHg 92%
06:00 +8°C° 0.4 mm 5 mps 739 mmHg 94%
07:00 +8°C° 1.4 mm 5 mps 738 mmHg 94%
08:00 +8°C° 1.4 mm 5 mps 738 mmHg 94%
09:00 +8°C° 1.4 mm 6 mps 737 mmHg 94%
10:00 +9°C° 1.3 mm 5 mps 737 mmHg 91%
11:00 +9°C° 1.3 mm 5 mps 737 mmHg 88%
12:00 +10°C° 1.3 mm 4 mps 736 mmHg 86%
13:00 +11°C° 0.2 mm 4 mps 736 mmHg 83%
14:00 +11°C° 0.2 mm 3 mps 736 mmHg 80%
15:00 +11°C° 0.2 mm 3 mps 736 mmHg 77%
16:00 +10°C° 0.3 mm 3 mps 737 mmHg 82%
17:00 +10°C° 0.3 mm 3 mps 737 mmHg 87%
18:00 +9°C° 0.3 mm 2 mps 737 mmHg 92%
19:00 +8°C° 0.3 mm 4 mps 738 mmHg 92%
20:00 +8°C° 0.3 mm 5 mps 739 mmHg 92%
21:00 +8°C° 0.3 mm 6 mps 740 mmHg 91%
22:00 +6°C° 0.2 mm 7 mps 741 mmHg 90%
23:00 +6°C° 0.2 mm 7 mps 741 mmHg 88%

26 October, Monday

Time Temperature Precipitation Wind Pressure Humidity
00:00 +6°C° 0.2 mm 8 mps 742 mmHg 87%
01:00 +6°C° 0.1 mm 8 mps 743 mmHg 86%
02:00 +6°C° 0.1 mm 7 mps 744 mmHg 85%
03:00 +6°C° 0.1 mm 7 mps 745 mmHg 84%
04:00 +6°C° 0 mm 7 mps 746 mmHg 84%
05:00 +5°C° 0 mm 6 mps 746 mmHg 85%
06:00 +5°C° 0 mm 6 mps 747 mmHg 85%
07:00 +4°C° 0 mm 6 mps 748 mmHg 82%
08:00 +4°C° 0 mm 6 mps 749 mmHg 80%
09:00 +3°C° 0 mm 6 mps 749 mmHg 77%
10:00 +4°C° 0 mm 6 mps 750 mmHg 72%
11:00 +6°C° 0 mm 5 mps 750 mmHg 67%
12:00 +6°C° 0 mm 5 mps 750 mmHg 62%
13:00 +7°C° 0 mm 5 mps 751 mmHg 61%
14:00 +7°C° 0 mm 5 mps 751 mmHg 60%
15:00 +7°C° 0 mm 4 mps 752 mmHg 60%
16:00 +6°C° 0 mm 4 mps 752 mmHg 65%
17:00 +5°C° 0 mm 3 mps 752 mmHg 70%
18:00 +4°C° 0 mm 3 mps 753 mmHg 76%
19:00 +4°C° 0 mm 3 mps 753 mmHg 78%
20:00 +4°C° 0 mm 3 mps 754 mmHg 80%
21:00 +4°C° 0 mm 2 mps 754 mmHg 82%
22:00 +4°C° 0 mm 2 mps 754 mmHg 83%
23:00 +4°C° 0 mm 2 mps 755 mmHg 83%

27 October, Tuesday

Time Temperature Precipitation Wind Pressure Humidity
00:00 +3°C° 0 mm 2 mps 755 mmHg 84%
01:00 +3°C° 0 mm 2 mps 755 mmHg 84%
02:00 +4°C° 0 mm 1 mps 756 mmHg 84%
03:00 +4°C° 0 mm 1 mps 756 mmHg 84%
04:00 +4°C° 0 mm 1 mps 756 mmHg 84%
05:00 +4°C° 0 mm 1 mps 757 mmHg 83%
06:00 +3°C° 0 mm 1 mps 757 mmHg 83%
07:00 +4°C° 0 mm 1 mps 757 mmHg 81%
08:00 +4°C° 0 mm 1 mps 757 mmHg 78%
09:00 +4°C° 0 mm 0 mps 758 mmHg 76%
10:00 +6°C° 0 mm 1 mps 758 mmHg 71%
11:00 +7°C° 0 mm 1 mps 758 mmHg 66%
12:00 +8°C° 0 mm 1 mps 759 mmHg 61%
13:00 +9°C° 0 mm 1 mps 759 mmHg 60%
14:00 +9°C° 0 mm 1 mps 759 mmHg 59%
15:00 +9°C° 0 mm 1 mps 759 mmHg 57%
16:00 +9°C° 0 mm 1 mps 759 mmHg 62%
17:00 +8°C° 0 mm 1 mps 759 mmHg 66%
18:00 +7°C° 0 mm 1 mps 759 mmHg 70%
19:00 +7°C° 0 mm 1 mps 759 mmHg 71%
20:00 +6°C° 0 mm 1 mps 759 mmHg 73%
21:00 +5°C° 0 mm 2 mps 759 mmHg 74%
22:00 +5°C° 0 mm 2 mps 759 mmHg 75%
23:00 +4°C° 0 mm 2 mps 759 mmHg 76%
Show more